Wind_Speed
8 8 7 7 7 6 6 6 5 5 5 6 5 5 6 6 6 7 7 7 6 6 6 6 7 7 7 6 5 4 3 2 2 1 1 1 1 0 1 1 1 1 1 1 2 2 2 3 3
9 8 8 8 8 7 6 6 5 5 5 5 5 4 6 6 5 6 6 7 6 7 7 7 7 7 6 5 5 5 3 3 2 2 1 0 1 0 1 1 1 2 2 2 2 2 2 3 3
9 9 8 8 8 8 8 7 5 4 6 5 5 6 5 6 5 6 7 7 7 7 7 8 7 7 6 5 5 5 4 3 2 2 1 1 1 1 1 1 2 2 2 2 3 3 3 3 3
10 9 9 9 9 9 8 6 4 5 5 5 5 6 6 6 6 7 7 7 7 7 7 7 7 7 6 5 5 5 4 3 2 2 1 1 1 0 1 1 2 2 3 3 3 3 3 3 3
10 10 9 10 10 9 8 6 5 4 4 5 5 6 7 7 6 7 7 8 8 8 8 7 7 7 6 6 5 5 4 3 2 1 0 0 1 1 2 2 3 3 3 4 4 4 4 4 4
10 10 10 10 9 8 7 5 5 5 5 5 5 7 7 7 8 8 8 9 9 9 8 7 6 6 6 6 6 5 4 3 2 1 0 1 1 2 2 3 4 4 4 5 5 5 5 5 5
10 10 10 9 9 7 5 5 5 5 5 5 6 7 7 9 9 8 10 10 9 9 8 7 7 6 6 6 5 4 3 2 1 0 1 1 2 3 3 4 4 5 5 5 6 6 5 6 6
10 10 10 9 9 8 6 5 6 6 6 6 7 8 8 8 8 9 9 9 8 9 8 8 8 7 7 6 5 4 3 2 1 0 1 2 2 3 4 4 5 5 5 6 6 6 6 7 7
10 9 9 9 9 8 7 6 6 6 6 7 8 9 9 8 9 9 8 8 9 9 8 9 8 7 7 5 4 3 3 2 0 1 1 2 3 3 4 4 5 6 6 7 7 8 8 8 8
9 9 9 9 9 8 7 6 6 6 7 7 8 8 8 8 8 9 9 9 9 9 9 8 7 7 6 5 5 4 2 1 0 1 2 2 3 4 4 5 6 6 7 7 8 8 8 8 8
9 10 10 9 8 7 7 6 6 7 7 7 8 8 8 8 8 9 9 8 8 9 9 8 7 7 6 6 5 4 2 1 0 1 2 3 3 4 5 6 7 8 8 8 8 8 8 8 8
8 9 8 9 8 7 7 7 7 7 8 8 8 8 8 8 8 7 9 8 8 8 8 8 7 6 5 5 4 3 2 1 1 2 2 3 4 5 6 7 7 8 9 9 9 8 8 8 8
9 8 8 8 8 8 8 7 7 7 8 8 8 8 9 9 8 8 8 8 8 8 7 6 6 6 5 4 3 3 2 1 1 2 3 4 4 5 6 7 8 8 9 9 9 9 9 8 8
9 9 8 8 8 8 8 7 6 7 7 8 8 9 10 10 9 9 8 8 7 7 7 6 6 5 4 4 3 2 2 1 1 2 3 4 5 6 7 8 8 8 9 9 9 9 9 9 9
9 9 9 9 8 8 7 7 7 8 7 7 7 8 9 9 8 8 8 8 8 7 7 7 6 5 4 4 3 3 2 2 2 2 3 4 5 7 7 8 8 9 9 9 9 9 9 9 9
9 9 9 10 9 9 9 8 8 8 8 7 7 7 7 8 8 8 8 7 7 7 7 6 6 5 5 4 3 3 2 2 2 3 4 5 6 7 7 8 8 9 9 10 10 10 10 10 10
8 9 9 9 9 9 9 8 8 7 8 7 7 6 7 7 8 8 8 7 7 6 6 6 6 5 5 4 3 2 2 2 2 3 5 6 6 7 7 8 9 9 10 10 10 10 11 10 10
8 8 9 8 8 8 8 8 8 7 7 7 7 6 7 7 7 8 8 7 7 7 6 6 6 5 4 3 2 2 2 2 3 4 5 6 7 7 7 8 9 10 10 10 10 10 11 11 10
9 8 8 8 9 8 7 8 8 7 7 8 7 7 7 7 7 8 8 8 8 7 7 6 5 5 4 3 2 2 2 2 3 4 5 5 6 6 7 9 9 10 10 10 10 10 10 10 10
8 8 8 8 8 8 8 8 8 8 7 8 8 7 6 7 7 7 8 8 7 7 6 6 6 5 4 3 2 2 2 3 4 4 5 5 6 6 7 9 9 10 10 10 10 10 10 10 10
8 7 7 7 8 8 8 7 8 8 8 8 8 7 7 7 7 7 8 8 7 7 7 7 6 5 4 4 3 2 3 3 3 4 5 5 6 6 7 9 10 10 10 10 10 10 10 11 10
9 8 7 7 7 8 8 7 7 7 7 8 8 8 8 8 8 8 8 7 7 7 8 7 6 6 5 4 3 3 3 3 3 4 4 5 6 6 7 9 10 10 10 10 11 10 10 11 10
9 9 9 8 7 7 7 7 7 7 7 7 8 8 8 8 8 8 8 8 8 7 7 7 6 6 5 4 3 3 3 3 3 3 3 4 5 6 7 8 9 9 10 10 10 10 10 10 10
9 8 8 8 7 7 7 7 7 7 6 7 7 8 8 9 9 9 9 9 8 7 7 7 6 5 5 4 3 3 3 3 3 3 3 4 5 6 7 8 8 9 10 10 10 11 11 11 10
9 8 8 8 8 7 7 7 6 7 6 7 7 8 8 8 9 10 9 9 8 8 7 6 6 5 5 4 4 4 3 3 3 3 4 4 5 6 6 7 8 9 10 10 10 11 11 11 10
9 9 9 8 7 7 8 7 6 7 7 7 8 9 9 9 9 10 10 9 8 7 7 7 7 6 5 4 4 4 3 3 3 4 4 4 4 5 6 7 8 9 9 10 10 11 11 11 11
9 9 9 9 7 7 8 7 6 6 7 7 8 8 9 9 9 9 9 9 8 8 7 7 7 6 5 5 4 4 4 4 4 4 4 4 5 5 6 7 8 9 9 9 10 11 11 11 11
9 9 9 9 8 7 8 7 6 6 6 7 8 8 9 10 10 10 10 9 8 8 7 7 7 6 6 5 5 5 5 4 4 4 4 5 5 5 6 7 8 8 9 10 10 11 11 12 11
10 9 8 9 9 8 7 7 6 6 6 7 8 8 9 10 10 10 10 9 9 8 8 7 7 6 6 5 5 5 5 5 5 5 5 5 5 5 6 7 8 9 10 10 11 11 12 12 12
11 10 10 10 10 9 8 6 6 6 6 7 8 8 9 9 10 10 10 10 9 9 9 8 8 7 7 6 6 6 6 6 6 6 5 5 5 6 6 7 8 9 10 11 11 12 12 12 12
Wind_Direction
249 247 244 237 234 236 237 236 224 215 220 219 204 188 187 184 184 180 181 179 174 166 164 163 156 156 158 153 145 145 142 138 129 125 124 65 53 70 41 0 1 353 346 338 326 315 306 298 293
248 244 239 235 233 235 230 231 219 217 223 214 209 195 188 183 185 171 174 176 177 167 167 164 158 163 164 163 159 152 155 147 139 129 118 73 53 62 34 4 340 330 331 333 329 323 312 306 304
246 241 238 232 229 230 233 228 219 216 216 214 207 204 195 186 184 180 175 172 169 168 169 166 164 165 166 167 162 158 152 145 140 145 129 95 73 47 356 352 344 339 333 320 321 322 320 314 309
243 239 236 232 230 230 234 224 215 211 205 205 201 200 191 184 184 182 168 165 162 161 164 161 162 165 166 166 166 163 158 142 132 127 122 70 25 350 325 339 340 333 327 324 317 316 317 316 310
240 236 234 233 231 227 226 215 204 205 201 203 196 193 188 183 180 178 173 163 161 158 158 153 160 164 159 160 161 155 154 145 141 118 87 334 329 327 327 330 327 324 318 314 314 310 307 308 308
240 234 232 230 226 227 218 205 198 204 200 196 192 194 190 184 181 177 173 163 156 155 155 153 158 159 158 155 150 148 152 154 152 147 324 320 320 318 318 323 323 322 316 311 311 310 305 305 304
234 229 228 224 222 222 213 200 196 199 200 198 188 185 180 180 177 176 166 162 159 155 157 158 156 157 160 155 149 153 155 160 156 178 328 328 325 320 321 326 325 322 317 313 313 312 308 301 299
228 224 223 220 220 217 206 199 188 192 198 198 191 183 176 175 170 167 162 163 164 162 161 162 161 162 161 159 160 157 156 157 151 316 321 327 323 320 323 325 325 324 322 319 317 314 309 302 296
219 216 217 215 214 209 202 196 186 191 190 190 188 185 179 176 170 166 161 160 163 168 168 164 165 165 164 164 164 160 155 157 144 314 318 327 329 327 327 326 325 323 322 320 318 314 311 306 301
212 210 209 207 207 206 199 193 189 189 184 179 183 185 178 176 174 166 161 159 163 169 170 170 169 165 163 168 169 167 159 167 184 302 315 320 324 327 329 328 326 324 323 321 318 315 312 307 303
202 203 202 198 198 196 189 189 186 182 175 170 170 173 169 169 173 170 163 165 167 169 171 168 172 170 172 170 172 175 176 187 236 286 306 316 319 322 325 328 328 326 323 321 320 317 314 309 304
192 189 188 185 182 175 166 170 167 173 173 171 166 165 169 170 167 168 167 165 170 171 174 174 175 174 176 170 175 182 193 203 248 275 293 305 312 317 321 323 326 328 326 324 324 320 316 312 306
186 185 186 188 181 173 165 167 166 165 167 169 168 169 174 172 171 166 162 167 167 170 173 175 174 174 170 169 175 185 206 223 266 291 302 311 320 324 327 328 328 329 328 326 324 323 319 316 311
183 186 181 180 176 173 173 171 171 169 167 165 167 173 173 169 170 171 167 171 171 173 176 172 174 169 167 174 184 198 211 231 270 299 313 320 326 330 330 327 329 329 326 325 324 321 318 315 311
178 184 183 180 178 175 175 173 170 170 165 162 162 168 168 168 168 169 172 175 174 175 174 178 182 175 174 183 192 201 215 246 277 310 326 327 330 330 329 329 329 328 328 327 326 324 320 317 312
177 185 184 182 182 179 171 164 168 170 170 168 171 171 169 169 166 166 171 174 177 180 176 173 177 174 177 182 188 204 225 250 284 320 329 332 333 332 331 333 332 330 330 329 329 326 323 318 314
173 177 177 177 182 180 176 172 175 177 176 177 179 175 171 174 171 170 173 177 181 180 176 172 177 177 183 187 192 215 233 254 297 320 327 332 336 335 333 334 334 333 333 333 332 328 325 323 317
171 173 174 175 172 172 172 175 176 176 181 184 190 190 184 183 180 180 182 184 182 183 185 184 183 185 188 188 199 226 249 271 305 323 328 333 336 336 335 336 336 336 335 334 333 331 329 328 324
174 171 171 172 172 171 170 172 175 177 181 186 189 190 187 189 189 189 187 184 185 189 193 194 191 191 187 192 214 234 269 293 314 331 336 338 339 340 341 341 340 339 339 338 337 336 334 333 330
182 179 176 169 168 173 173 179 180 180 183 189 194 195 189 190 196 195 192 195 196 198 199 200 199 198 199 212 230 250 273 299 320 336 340 341 343 344 345 345 344 343 344 344 343 341 338 336 334
179 177 174 172 168 173 175 182 187 188 192 196 201 204 202 198 198 192 188 195 205 205 204 206 207 203 208 218 234 255 273 298 320 334 340 344 346 345 347 350 351 350 348 346 345 344 343 342 340
181 173 174 178 175 176 180 183 189 191 195 196 201 206 204 201 200 193 191 198 203 207 208 211 210 210 215 224 234 254 273 295 317 330 337 344 349 352 354 354 354 353 351 350 349 349 347 346 344
180 175 175 181 185 188 186 189 193 199 203 200 200 204 208 207 200 200 200 202 206 211 209 203 204 211 216 226 244 256 268 285 306 323 333 345 351 351 354 356 356 355 353 352 350 350 349 348 347
186 185 187 188 189 197 195 194 191 198 204 199 195 200 205 205 202 203 204 207 210 211 210 203 203 210 215 222 239 257 271 281 289 308 324 338 344 345 348 352 355 355 354 353 351 351 351 350 350
194 192 196 198 202 201 200 197 190 195 204 199 198 202 204 207 208 205 208 213 215 212 212 212 211 214 218 229 242 259 265 274 288 302 313 327 336 340 342 348 352 353 354 357 357 356 355 353 351
198 197 205 209 208 209 210 206 195 199 207 202 199 202 204 207 205 205 209 213 214 213 214 213 215 217 220 231 244 250 255 268 282 296 308 320 331 337 340 345 348 350 353 357 0 360 357 355 353
202 199 208 216 219 225 220 212 205 202 206 203 197 199 203 204 205 206 209 211 213 211 212 211 215 218 222 230 239 249 258 268 278 289 300 310 324 332 336 340 344 349 354 356 357 356 356 354 352
200 201 209 217 227 230 224 216 204 211 212 206 199 195 199 206 209 210 210 212 214 215 214 213 214 219 225 233 241 252 258 264 270 279 292 306 317 327 334 341 344 346 347 347 347 349 350 349 348
200 207 213 224 231 235 233 219 205 210 213 209 202 205 206 209 213 215 213 213 214 212 212 215 216 223 229 238 247 251 255 262 271 277 288 302 310 318 326 335 337 339 339 338 339 340 341 340 340
206 211 218 230 234 240 241 217 215 221 221 215 208 210 212 212 218 220 217 217 219 216 218 222 222 226 232 239 244 249 258 265 272 276 282 292 301 307 315 326 330 333 335 337 338 338 336 336 337
Height
5875 5875 5876 5877 5878 5878 5877 5878 5878 5879 5879 5879 5880 5881 5882 5884 5885 5887 5886 5886 5887 5888 5888 5889 5890 5891 5892 5893 5893 5894 5894 5894 5894 5894 5894 5894 5894 5893 5893 5893 5892 5891 5891 5890 5890 5889 5888 5888 5888
5873 5873 5875 5876 5875 5876 5877 5877 5877 5878 5878 5879 5880 5881 5882 5883 5883 5884 5884 5885 5886 5887 5888 5889 5890 5891 5892 5893 5893 5894 5894 5895 5895 5895 5894 5894 5894 5893 5893 5893 5892 5891 5890 5890 5889 5889 5888 5888 5887
5870 5871 5873 5873 5873 5874 5875 5875 5876 5877 5877 5878 5879 5880 5882 5882 5883 5883 5883 5884 5886 5887 5888 5889 5890 5891 5892 5893 5893 5894 5894 5895 5895 5895 5895 5894 5894 5894 5893 5893 5892 5891 5890 5890 5889 5888 5887 5887 5887
5869 5870 5872 5872 5872 5873 5873 5874 5875 5875 5876 5877 5879 5880 5881 5881 5882 5882 5883 5885 5886 5887 5888 5889 5890 5891 5892 5893 5893 5894 5894 5895 5895 5895 5895 5894 5894 5894 5893 5893 5892 5891 5890 5890 5889 5888 5887 5886 5886
5867 5868 5869 5869 5870 5871 5871 5872 5873 5874 5876 5877 5878 5879 5879 5881 5882 5882 5883 5885 5886 5887 5888 5888 5890 5891 5892 5893 5893 5894 5895 5895 5895 5895 5895 5894 5894 5893 5893 5892 5891 5891 5890 5889 5888 5887 5886 5886 5885
5865 5866 5867 5868 5869 5870 5870 5871 5872 5874 5875 5876 5877 5878 5879 5880 5881 5882 5883 5884 5886 5887 5888 5889 5890 5891 5892 5893 5893 5894 5895 5895 5895 5895 5895 5894 5894 5893 5892 5892 5891 5890 5889 5888 5887 5886 5886 5885 5884
5864 5864 5865 5867 5867 5868 5869 5870 5872 5873 5874 5875 5876 5877 5878 5879 5880 5881 5882 5884 5885 5887 5888 5889 5890 5891 5892 5893 5894 5894 5895 5895 5895 5895 5894 5894 5893 5893 5892 5891 5890 5889 5888 5887 5886 5885 5885 5884 5883
5861 5863 5863 5865 5866 5867 5869 5870 5870 5872 5873 5874 5876 5877 5879 5880 5881 5882 5883 5884 5885 5887 5888 5889 5890 5891 5892 5893 5894 5894 5895 5895 5895 5894 5894 5894 5893 5892 5892 5891 5890 5888 5887 5886 5885 5884 5883 5882 5882
5860 5862 5862 5864 5865 5866 5868 5869 5870 5871 5872 5873 5875 5876 5878 5879 5881 5882 5883 5884 5885 5886 5888 5889 5890 5891 5892 5893 5894 5894 5894 5894 5894 5894 5893 5893 5893 5892 5891 5890 5889 5888 5887 5886 5884 5883 5882 5881 5880
5858 5860 5861 5863 5864 5866 5867 5868 5869 5870 5871 5873 5874 5876 5878 5879 5880 5882 5883 5884 5885 5887 5888 5889 5890 5891 5892 5893 5893 5894 5894 5894 5894 5894 5893 5893 5892 5891 5890 5889 5888 5887 5886 5884 5883 5881 5880 5879 5878
5857 5858 5860 5861 5863 5865 5866 5867 5868 5869 5871 5872 5874 5876 5877 5879 5880 5881 5883 5884 5885 5887 5888 5889 5890 5891 5892 5892 5893 5894 5894 5894 5894 5893 5893 5892 5891 5891 5890 5888 5887 5886 5884 5883 5882 5880 5879 5878 5877
5856 5857 5858 5860 5862 5864 5865 5866 5868 5869 5871 5872 5874 5875 5876 5878 5880 5881 5882 5884 5886 5887 5888 5889 5890 5891 5891 5892 5893 5893 5893 5893 5893 5893 5893 5892 5891 5890 5889 5887 5886 5885 5883 5882 5880 5879 5877 5876 5875
5856 5857 5858 5860 5861 5863 5865 5866 5868 5869 5870 5872 5873 5875 5876 5878 5880 5881 5883 5884 5885 5887 5888 5889 5890 5890 5891 5892 5892 5892 5893 5893 5893 5892 5892 5891 5890 5889 5888 5886 5885 5883 5882 5880 5878 5877 5876 5874 5873
5855 5857 5858 5860 5861 5863 5865 5866 5868 5869 5870 5872 5873 5875 5876 5878 5879 5881 5882 5884 5885 5886 5887 5888 5889 5890 5891 5891 5892 5892 5892 5892 5892 5891 5891 5890 5889 5888 5887 5885 5884 5882 5880 5879 5877 5875 5874 5873 5871
5855 5856 5858 5859 5861 5863 5865 5866 5868 5869 5870 5871 5873 5874 5876 5877 5879 5880 5882 5883 5885 5886 5887 5888 5889 5890 5890 5891 5891 5891 5892 5892 5891 5891 5890 5889 5888 5887 5885 5884 5882 5881 5879 5877 5876 5874 5872 5871 5869
5855 5857 5857 5859 5860 5862 5866 5866 5867 5868 5869 5871 5872 5874 5876 5877 5878 5880 5881 5883 5884 5885 5886 5887 5889 5889 5890 5890 5890 5891 5891 5891 5891 5890 5889 5888 5887 5885 5884 5883 5881 5879 5878 5876 5874 5872 5871 5869 5867
5855 5856 5857 5859 5860 5862 5864 5865 5867 5868 5869 5870 5872 5874 5875 5877 5878 5879 5881 5882 5883 5884 5886 5887 5888 5888 5889 5889 5890 5890 5890 5890 5890 5889 5888 5887 5885 5884 5883 5882 5880 5878 5876 5874 5873 5871 5869 5867 5865
5855 5856 5857 5859 5860 5862 5863 5865 5866 5867 5868 5870 5871 5873 5875 5876 5877 5879 5880 5881 5883 5884 5885 5886 5887 5888 5888 5888 5889 5889 5889 5889 5889 5888 5887 5886 5884 5883 5882 5880 5879 5877 5875 5873 5871 5869 5867 5865 5864
5854 5856 5857 5858 5860 5862 5863 5865 5866 5867 5868 5869 5871 5872 5874 5875 5877 5878 5879 5880 5882 5883 5884 5885 5886 5887 5887 5888 5888 5888 5888 5888 5888 5887 5886 5885 5883 5882 5881 5879 5877 5876 5874 5872 5870 5868 5866 5864 5862
5854 5855 5857 5858 5859 5861 5863 5864 5865 5866 5868 5869 5870 5872 5873 5874 5875 5877 5878 5880 5881 5882 5883 5884 5885 5886 5886 5887 5887 5888 5888 5887 5887 5886 5885 5884 5883 5881 5880 5878 5877 5875 5872 5871 5869 5867 5865 5863 5861
5854 5855 5856 5858 5859 5861 5862 5864 5865 5866 5867 5868 5869 5870 5871 5873 5874 5876 5877 5879 5880 5881 5882 5883 5884 5885 5885 5886 5886 5887 5887 5886 5886 5885 5884 5883 5882 5881 5879 5878 5876 5873 5872 5870 5868 5866 5864 5862 5860
5854 5855 5856 5858 5859 5860 5862 5863 5864 5865 5866 5867 5868 5869 5871 5872 5874 5875 5877 5878 5879 5880 5881 5882 5883 5884 5884 5885 5885 5885 5885 5885 5885 5884 5883 5882 5881 5880 5878 5877 5875 5873 5871 5869 5867 5865 5863 5861 5859
5853 5854 5856 5857 5858 5860 5861 5862 5864 5863 5865 5866 5867 5868 5869 5871 5873 5874 5876 5877 5878 5879 5880 5881 5882 5883 5883 5884 5884 5884 5884 5884 5884 5883 5883 5882 5881 5879 5878 5876 5874 5872 5870 5868 5866 5864 5862 5860 5858
5853 5854 5855 5856 5857 5859 5860 5861 5863 5863 5864 5865 5866 5867 5868 5870 5871 5873 5874 5875 5877 5878 5879 5880 5881 5881 5882 5883 5883 5883 5883 5883 5883 5883 5882 5881 5880 5879 5877 5876 5874 5872 5870 5868 5866 5864 5861 5859 5857
5852 5854 5855 5855 5856 5858 5859 5859 5861 5862 5862 5863 5864 5866 5867 5868 5870 5871 5873 5874 5875 5876 5877 5878 5879 5880 5881 5881 5882 5882 5882 5882 5882 5882 5881 5880 5879 5878 5877 5875 5873 5871 5869 5867 5865 5863 5861 5858 5856
5850 5852 5854 5855 5856 5857 5857 5857 5860 5860 5860 5861 5863 5864 5865 5867 5868 5870 5871 5872 5874 5875 5876 5877 5878 5879 5880 5880 5881 5881 5881 5881 5881 5881 5880 5879 5878 5877 5876 5875 5873 5871 5869 5867 5865 5862 5860 5858 5856
5849 5850 5852 5854 5854 5855 5855 5857 5858 5858 5858 5860 5861 5862 5864 5865 5866 5868 5870 5871 5872 5873 5874 5875 5876 5877 5878 5879 5879 5880 5880 5880 5880 5879 5879 5878 5877 5876 5875 5874 5872 5870 5868 5866 5864 5862 5859 5857 5855
5848 5849 5851 5852 5853 5853 5854 5854 5856 5856 5857 5858 5859 5861 5862 5864 5865 5866 5868 5870 5871 5872 5873 5874 5875 5876 5877 5877 5878 5878 5878 5878 5878 5878 5878 5877 5876 5875 5874 5872 5871 5869 5867 5865 5863 5861 5858 5856 5854
5846 5848 5849 5850 5851 5852 5852 5855 5855 5855 5856 5857 5858 5859 5861 5862 5864 5865 5866 5868 5869 5870 5871 5872 5873 5874 5875 5875 5876 5876 5877 5877 5876 5876 5876 5875 5875 5874 5872 5871 5870 5868 5866 5864 5862 5860 5857 5855 5852
5844 5845 5847 5849 5849 5849 5850 5855 5853 5854 5854 5855 5857 5858 5859 5860 5862 5863 5864 5866 5867 5868 5870 5871 5872 5873 5873 5874 5874 5874 5875 5875 5875 5874 5874 5874 5873 5872 5871 5870 5868 5867 5865 5863 5861 5858 5856 5853 5851